Zurück zum Katalog

GALAXY 36

AktivKommunikationGEO
NORAD 54742·PAYLOAD·🇺🇸 United States

Gestartet Dec 13, 2022 von Guiana Space Centre

Loading…

TLE

AktuellSource: CelesTrak SupGP

Epoche: Sep 14, 2026, 00:00 UTC

1 54742C 22170B   26257.00000000 -.00000095  00000+0  00000+0 0  2576
2 54742   0.0135 159.1052 0002206 323.5805 141.3037  1.00272480    16

Verfolge GALAXY 36 in Echtzeit mit AllMySat

Download on the App Store